Regional Weather Roundup
Issued by NWS State College, PA

Home | Current Version | Previous Version | Text Only | Print | Product List | Glossary Off
Versions: 1 2 3 4 5 6 7 8 9 10 11 12 13 14 15 16 17 18 19 20 21 22 23 24 25 26 27 28 29 30 31 32 33 34 35 36 37 38 39 40 41 42 43 44 45 46 47 48 49 50

000
ASUS41 KCTP 180003
RWRCTP

REGIONAL WEATHER ROUNDUP
NATIONAL WEATHER SERVICE STATE COLLEGE PA
800 PM EDT WED SEP 17 2014

Note: "fair" indicates few or no clouds below 12,000 feet with no
significant weather and/or obstructions to visibility.

* = STATION THAT DOES NOT REPORT PRECIPITATION /E.G. RAIN...SNOW...ETC/
    THUNDER OR FOG.

PAZ002>004-007>009-013>016-020>023-029>032-180100-
WESTERN PENNSYLVANIA

CITY           SKY/WX    TMP DP  RH WIND       PRES   REMARKS
ERIE           PTCLDY    62  48  60 W3        29.98F
MEADVILLE      CLEAR     56  48  74 N5        30.00R
FRANKLIN*      CLEAR     55  45  67 CALM      30.01R
NEW CASTLE     FAIR      57  49  75 CALM      30.00R
BEAVER COUNTY  CLEAR     61  48  63 NW3       29.99S
BUTLER*        CLEAR     55  46  71 CALM      30.00R
PITTSBURGH INT MOCLDY    63  48  58 NW5       29.97S
PITTSBURGH     CLEAR     64  46  52 NW3       29.97S
INDIANA*       PTCLDY    57  52  82 CALM      30.02S
LATROBE        NOT AVBL
WASHINGTON CO* CLEAR     54  48  82 CALM      29.98S
$$

PAZ004>006-010>012-017>019-024>028-033>037-041-042-045-046-049>053-180100-
CENTRAL PENNSYLVANIA

CITY           SKY/WX    TMP DP  RH WIND       PRES   REMARKS
BRADFORD       PTCLDY    52  46  80 CALM      30.00S
DUBOIS         PTCLDY    54  47  77 CALM      29.99S
CLEARFIELD     CLEAR     55  50  83 N6        29.99S
JOHNSTOWN      CLEAR     59  45  59 NW5       30.00S
ALTOONA        MOCLDY    58  52  80 CALM      29.99R
STATE COLLEGE  PTCLDY    61  50  67 CALM      29.98S
WILLIAMSPORT   PTCLDY    59  50  72 CALM      29.97R
SELINSGROVE    CLEAR     54  52  93 CALM      29.98S
FT INDIANTOWN  CLEAR     56  54  94 N2        29.98S
CAPITAL CITY   CLEAR     62  52  69 SW3       29.97S
HARRISBURG     PTCLDY    60  52  74 CALM      29.97R
YORK           CLEAR     55  50  83 CALM      29.98S
$$

PAZ038>040-043-044-047-048-054-055-060>062-067>071-180100-
EASTERN PENNSYLVANIA

CITY           SKY/WX    TMP DP  RH WIND       PRES   REMARKS
SCRANTON       CLEAR     59  42  53 S3        29.99R
MOUNT POCONO   CLEAR     50  45  83 CALM      30.01S
ALLENTOWN      CLEAR     65  44  46 W5        29.98S
QUAKERTOWN*    CLEAR     57  50  77 CALM      29.99S
READING        CLEAR     65  47  52 CALM      29.97S
LANCASTER      CLEAR     62  48  60 CALM      29.98S
COATESVILLE    PTCLDY    63  50  63 CALM      29.99S
POTTSTOWN      CLEAR     59  53  80 CALM      29.99S
BLUE BELL      CLEAR     55  54  94 CALM      29.97S
DOYLESTOWN     CLEAR     59  51  75 CALM      29.98S
WILLOW GROVE   NOT AVBL
NORTH PHILA    CLEAR     68  46  45 NW6       29.99S
PHILADELPHIA   PTCLDY    70  49  47 S6        29.97F
$$


USA.gov is the U.S. government's official web portal to all federal, state and local government web resources and services.